Location: Newark
(49.3000°N, 9.4667°E)
Time: 22:39:04
(UTC+00:00)

Tiros 1 - Pass Details

Date: 02 June 2019
Orbit: 631 x 664 km, 48.4° (Epoch: 18 June)

Event Time Altitude Azimuth Distance (km) Brightness Sun altitude
Rises 07:43:56 0° 248° (WSW) 2,913 10.1 39.8°
Reaches altitude 10° 07:46:15 10° 246° (WSW) 2,008 9.4 40.2°
Maximum altitude 07:50:50 65° 165° (SSE) 696 8.3 40.9°
Drops below altitude 10° 07:55:26 10° 84° (E) 2,025 10.7 41.7°
Sets 07:57:47 0° 81° (E) 2,940 11.2 42.0°
